Flag for Germany Weather for the Past 2 Weeks in Geislingen an der Steige, Baden-Württemberg, Germany

Now
52 °F

Broken clouds.


Feels Like: 44 °F
Forecast: 39 / 47 °F
Wind: 33 mph from Southwest

Location: Laupheim Airport

Current Time: Feb 8, 2016 at 4:12:33 PM

Latest Report: Feb 8, 2016 at 3:51 PM


Visibility: N/A

Pressure: 29.62 "Hg

Humidity: 54%

Dew point: 36 °F

Location of Geislingen an der SteigeLocation

Historic Weather in Geislingen an der Steige — Graph

°F

Geislingen an der Steige Temperature Yesterday

Maximum temperature yesterday: 46 °F (at 3:20 PM)
Minimum temperature yesterday: 30 °F (at 3:20 AM)
Average temperature yesterday: 36 °F

High & Low Weather Summary for the Past Weeks

 TemperatureHumidityPressure
High55 °F (Feb 1, 11:49 AM)100% (Jan 28, 7:20 PM)30.51 "Hg (Jan 28, 7:20 PM)
Low28 °F (Feb 6, 2:20 AM)47% (Jan 25, 2:20 PM)29.59 "Hg (Feb 8, 2:20 PM)
Average41 °F80%30.17 "Hg
* Reported Jan 24 3:20 PM — Feb 8 3:02 PM, Geislingen an der Steige, Weather by CustomWeather, © 2016

Note: Actual official high and low records may vary slightly from our data, if they occured in-between our weather recording intervals... More about our weather records

Advertising

Geislingen an der Steige Weather History for the Previous 24 Hours

 ConditionsComfort  
Time TempWeatherWind HumidityBarometerVisibility
3:02 PM
Mon, Feb 8
52 °FBroken clouds.30 mph50%29.62 "HgN/A
2:20 PM52 °FBroken clouds.26 mph50%29.59 "HgN/A
1:53 PM52 °FPartly sunny.26 mph50%29.62 "HgN/A
1:20 PM50 °FPartly sunny.23 mph50%29.65 "HgN/A
12:20 PM46 °FPartly sunny.21 mph57%29.65 "HgN/A
11:20 AM45 °FBroken clouds.23 mph57%29.68 "HgN/A
10:20 AM43 °FBroken clouds.20 mph61%29.71 "HgN/A
9:20 AM43 °FPartly sunny.17 mph57%29.74 "HgN/A
8:20 AM41 °FBroken clouds.17 mph61%29.77 "HgN/A
7:20 AM39 °FPassing clouds.15 mph70%29.77 "HgN/A
6:20 AM37 °FPassing clouds.15 mph75%29.77 "HgN/A
5:20 AM37 °FPassing clouds.9 mph75%29.80 "HgN/A
4:20 AM37 °FPassing clouds.10 mph75%29.80 "HgN/A
3:20 AM37 °FPassing clouds.13 mph81%29.83 "HgN/A
2:20 AM39 °FPassing clouds.12 mph81%29.86 "HgN/A
1:20 AM39 °FPartly cloudy.10 mph81%29.86 "HgN/A
12:20 AM39 °FPassing clouds.12 mph81%29.89 "HgN/A
11:20 PM
Sun, Feb 7
39 °FPassing clouds.13 mph87%29.89 "HgN/A
10:20 PM39 °FPartly cloudy.10 mph87%29.89 "HgN/A
9:20 PM39 °FPassing clouds.14 mph87%29.89 "HgN/A
8:20 PM39 °FLight rain. Partly cloudy.12 mph87%29.86 "HgN/A
7:20 PM41 °FLight rain. Partly cloudy.13 mph87%29.83 "HgN/A
6:20 PM41 °FLight rain. Passing clouds.5 mph87%29.80 "HgN/A
5:20 PM41 °FLight rain. Broken clouds.8 mph81%29.80 "HgN/A
4:20 PM45 °FLight rain. Partly sunny.8 mph71%29.74 "HgN/A
Weather by CustomWeather, © 2016

See weather overviewHow to use our weather pages